Beaufort, SC

9:50 PM EDT on March 24, 2017 (GMT -0400)
Beaufort

Weather History for KARW - November, 2013

Change the Weather History Date:

Tuesday, November 19, 2013

  Actual Average (KNBC) Record (KNBC)
Temperature  
Mean Temperature 56 °F -  
Max Temperature 62 °F 70 °F 83 °F (1938)
Min Temperature 51 °F 50 °F 28 °F (2008)
Degree Days  
Heating Degree Days 8    
Growing Degree Days 6 (Base 50)    
Moisture  
Dew Point 40 °F    
Average Humidity 55    
Maximum Humidity 72    
Minimum Humidity 37    
Precipitation  
Precipitation 0.00 in - - ()
Sea Level Pressure  
Sea Level Pressure 30.07 in    
Wind  
Wind Speed 11 mph (NNE)    
Max Wind Speed 24 mph    
Max Gust Speed 29 mph    
Visibility 8 miles    
Events      
Averages and records for this station are not official NWS values.
T = Trace of Precipitation, MM = Missing Value Source: NWS Daily Summary

Daily Weather History Graph

Daily Weather History Graph

Search for Another Location

Airport or City:

Trip Planner

Search our weather history database for the weather conditions in past years. The results will help you decide how hot, cold, wet, or windy it might be!

Date:

Astronomy

Nov. 19, 2013 Rise Set
Actual Time 6:55 AM EST 5:19 PM EST
Civil Twilight 6:29 AM EST 5:46 PM EST
Nautical Twilight 5:59 AM EST 6:15 PM EST
Astronomical Twilight 5:30 AM EST 6:45 PM EST
Moon 7:10 PM EST (11/19) 8:32 AM EST (11/19)
Length of Visible Light 11h 16m
Length of Day
10h 24m
Waning Gibbous, 96% of the Moon is Illuminated
Nov 19
Waning Gibbous
Nov 25
Last Quarter
Dec 2
New
Dec 9
First Quarter
Dec 17
Full

Hourly Weather History & Observations

Time (EST) Temp. Dew Point Humidity Pressure Visibility Wind Dir Wind Speed Gust Speed Precip Events Conditions
12:15 AM 62.6 °F 44.6 °F 52% 29.94 in 10.0 mi NW 12.7 mph - N/A   Clear
12:35 AM 62.6 °F 42.8 °F 48% 29.94 in 10.0 mi NNW 11.5 mph 16.1 mph N/A   Clear
12:55 AM 60.8 °F 42.8 °F 52% 29.94 in 7.0 mi NNW 10.4 mph - N/A   Clear
1:15 AM 60.8 °F 41.0 °F 48% 29.94 in 10.0 mi NNW 9.2 mph - N/A   Clear
1:35 AM 59.0 °F 41.0 °F 51% 29.95 in 7.0 mi NW 8.1 mph - N/A   Clear
1:55 AM 59.0 °F 41.0 °F 51% 29.95 in 10.0 mi NNW 8.1 mph - N/A   Clear
2:15 AM 59.0 °F 41.0 °F 51% 29.95 in 7.0 mi NNW 8.1 mph - N/A   Clear
2:35 AM 57.2 °F 41.0 °F 55% 29.96 in 7.0 mi NNW 6.9 mph - N/A   Clear
2:55 AM 55.4 °F 41.0 °F 58% 29.96 in 10.0 mi North 8.1 mph - N/A   Clear
3:15 AM 55.4 °F 41.0 °F 58% 29.96 in 7.0 mi North 9.2 mph - N/A   Clear
3:35 AM 55.4 °F 41.0 °F 58% 29.96 in 7.0 mi North 9.2 mph - N/A   Clear
3:55 AM 55.4 °F 41.0 °F 58% 29.96 in 7.0 mi North 10.4 mph - N/A   Clear
4:15 AM 55.4 °F 41.0 °F 58% 29.98 in 7.0 mi North 9.2 mph - N/A   Clear
4:35 AM 53.6 °F 41.0 °F 62% 29.98 in 7.0 mi North 10.4 mph - N/A   Clear
4:55 AM 53.6 °F 41.0 °F 62% 29.99 in 7.0 mi North 10.4 mph - N/A   Clear
5:15 AM 53.6 °F 41.0 °F 62% 29.99 in 7.0 mi NNE 16.1 mph 20.7 mph N/A   Clear
5:35 AM 53.6 °F 41.0 °F 62% 30.00 in 7.0 mi NNE 11.5 mph 19.6 mph N/A   Clear
5:55 AM 53.6 °F 41.0 °F 62% 30.01 in 7.0 mi NNE 12.7 mph - N/A   Clear
6:15 AM 53.6 °F 41.0 °F 62% 30.02 in 7.0 mi NNE 12.7 mph - N/A   Clear
6:35 AM 53.6 °F 41.0 °F 62% 30.03 in 10.0 mi NNE 13.8 mph - N/A   Clear
6:55 AM 51.8 °F 41.0 °F 67% 30.04 in 10.0 mi NNE 12.7 mph - N/A   Clear
7:15 AM 51.8 °F 41.0 °F 67% 30.05 in 10.0 mi NNE 12.7 mph - N/A   Clear
7:35 AM 53.6 °F 41.0 °F 62% 30.05 in 10.0 mi NNE 13.8 mph - N/A   Clear
7:55 AM 53.6 °F 41.0 °F 62% 30.06 in 10.0 mi NNE 13.8 mph 19.6 mph N/A   Clear
8:15 AM 53.6 °F 39.2 °F 58% 30.07 in 10.0 mi NNE 18.4 mph - N/A   Clear
8:35 AM 55.4 °F 37.4 °F 51% 30.08 in 10.0 mi NNE 23.0 mph 27.6 mph N/A   Clear
8:55 AM 55.4 °F 37.4 °F 51% 30.08 in 10.0 mi NE 21.9 mph 26.5 mph N/A   Clear
9:15 AM 55.4 °F 37.4 °F 51% 30.09 in 10.0 mi NNE 24.2 mph 28.8 mph N/A   Clear
9:35 AM 57.2 °F 37.4 °F 48% 30.10 in 10.0 mi NNE 20.7 mph 25.3 mph N/A   Clear
9:55 AM 59.0 °F 37.4 °F 45% 30.10 in 10.0 mi NNE 21.9 mph - N/A   Clear
10:15 AM 59.0 °F 37.4 °F 45% 30.11 in 10.0 mi NNE 20.7 mph 24.2 mph N/A   Clear
10:35 AM 59.0 °F 35.6 °F 42% 30.11 in 7.0 mi NNE 15.0 mph 23.0 mph N/A   Clear
10:55 AM 60.8 °F 35.6 °F 39% 30.11 in 5.0 mi NNE 16.1 mph 20.7 mph N/A   Haze
11:15 AM 60.8 °F 35.6 °F 39% 30.11 in 7.0 mi NNE 16.1 mph - N/A   Clear
11:35 AM 60.8 °F 35.6 °F 39% 30.10 in 7.0 mi NNE 12.7 mph - N/A   Clear
11:55 AM 62.6 °F 37.4 °F 39% 30.10 in 5.0 mi NNE 16.1 mph - N/A   Haze
12:15 PM 60.8 °F 35.6 °F 39% 30.09 in 7.0 mi NE 11.5 mph - N/A   Clear
12:35 PM 62.6 °F 37.4 °F 39% 30.09 in 7.0 mi NNE 11.5 mph - N/A   Clear
12:55 PM 62.6 °F 37.4 °F 39% 30.09 in 7.0 mi NNE 9.2 mph - N/A   Clear
1:15 PM 62.6 °F 37.4 °F 39% 30.09 in 7.0 mi NNE 9.2 mph - N/A   Clear
1:35 PM 62.6 °F 35.6 °F 37% 30.08 in 7.0 mi North 6.9 mph - N/A   Clear
1:55 PM 62.6 °F 37.4 °F 39% 30.08 in 5.0 mi NNE 9.2 mph - N/A   Haze
2:15 PM 62.6 °F 37.4 °F 39% 30.07 in 5.0 mi NNE 9.2 mph - N/A   Haze
2:35 PM 60.8 °F 35.6 °F 39% 30.06 in 5.0 mi NNE 9.2 mph - N/A   Haze
2:55 PM 62.6 °F 35.6 °F 37% 30.06 in 7.0 mi North 10.4 mph - N/A   Clear
3:15 PM 60.8 °F 37.4 °F 42% 30.07 in 7.0 mi North 10.4 mph - N/A   Clear
3:35 PM 60.8 °F 37.4 °F 42% 30.08 in 5.0 mi NNE 9.2 mph - N/A   Haze
3:55 PM 60.8 °F 37.4 °F 42% 30.08 in 5.0 mi NNE 8.1 mph - N/A   Haze
4:15 PM 60.8 °F 37.4 °F 42% 30.09 in 7.0 mi NNE 8.1 mph - N/A   Clear
4:35 PM 59.0 °F 37.4 °F 45% 30.08 in 7.0 mi North 6.9 mph - N/A   Clear
4:55 PM 57.2 °F 42.8 °F 59% 30.08 in 7.0 mi East 5.8 mph - N/A   Clear
5:15 PM 55.4 °F 42.8 °F 63% 30.09 in 7.0 mi East 5.8 mph - N/A   Clear
5:35 PM 55.4 °F 42.8 °F 63% 30.09 in 7.0 mi East 4.6 mph - N/A   Clear
5:55 PM 55.4 °F 44.6 °F 67% 30.10 in 7.0 mi East 4.6 mph - N/A   Clear
6:15 PM 55.4 °F 44.6 °F 67% 30.11 in 7.0 mi ENE 4.6 mph - N/A   Clear
6:35 PM 55.4 °F 44.6 °F 67% 30.11 in 7.0 mi ENE 8.1 mph - N/A   Clear
6:55 PM 55.4 °F 42.8 °F 63% 30.12 in 7.0 mi NE 9.2 mph - N/A   Clear
7:15 PM 55.4 °F 42.8 °F 63% 30.13 in 7.0 mi ENE 9.2 mph - N/A   Clear
7:35 PM 55.4 °F 42.8 °F 63% 30.14 in 7.0 mi ENE 6.9 mph - N/A   Clear
7:55 PM 55.4 °F 42.8 °F 63% 30.14 in 7.0 mi ENE 6.9 mph - N/A   Clear
8:15 PM 53.6 °F 42.8 °F 67% 30.14 in 7.0 mi ENE 5.8 mph - N/A   Clear
8:35 PM 53.6 °F 42.8 °F 67% 30.14 in 7.0 mi NE 6.9 mph - N/A   Clear
8:55 PM 53.6 °F 44.6 °F 72% 30.15 in 10.0 mi NE 6.9 mph - N/A   Clear
9:15 PM 53.6 °F 44.6 °F 72% 30.16 in 7.0 mi NE 6.9 mph - N/A   Clear
9:35 PM 53.6 °F 44.6 °F 72% 30.16 in 7.0 mi NE 9.2 mph - N/A   Clear
9:55 PM 53.6 °F 44.6 °F 72% 30.16 in 7.0 mi NNE 11.5 mph - N/A   Clear
10:15 PM 53.6 °F 42.8 °F 67% 30.16 in 7.0 mi NE 13.8 mph - N/A   Clear
10:35 PM 53.6 °F 42.8 °F 67% 30.16 in 10.0 mi NE 11.5 mph - N/A   Clear
10:55 PM 53.6 °F 42.8 °F 67% 30.17 in 7.0 mi NE 12.7 mph - N/A   Clear
11:15 PM 53.6 °F 42.8 °F 67% 30.17 in 7.0 mi NE 13.8 mph - N/A   Clear
11:35 PM 53.6 °F 42.8 °F 67% 30.18 in 7.0 mi NNE 12.7 mph - N/A   Clear
11:55 PM 53.6 °F 42.8 °F 67% 30.17 in 7.0 mi NE 13.8 mph - N/A   Clear